Weather History for Gillette, WY

Change the Weather History Date:

Sunday, November 4, 2012

  Actual Average Record
Temperature  
Mean Temperature 45 °F 38 °F  
Max Temperature 53 °F 51 °F 73 °F (1983)
Min Temperature 37 °F 25 °F -2 °F (1935)
Degree Days  
Heating Degree Days 20 27  
Month to date heating degree days 75 105  
Since 1 July heating degree days 872 1014  
Cooling Degree Days 0 0  
Month to date cooling degree days 0 0  
Year to date cooling degree days 795 502  
Moisture  
Dew Point 31 °F    
Average Humidity 58    
Maximum Humidity 79    
Minimum Humidity 36    
Precipitation  
Precipitation T in 0.03 in 0.40 in (1948)
Month to date precipitation T 0.10  
Year to date precipitation 8.47 13.04  
Sea Level Pressure  
Sea Level Pressure 30.15 in    
Wind  
Wind Speed 11 mph (WNW)    
Max Wind Speed 28 mph    
Max Gust Speed 33 mph    
Visibility 10 miles    
Events      
T = Trace of Precipitation, MM = Missing Value Source: NWS Daily Summary

Daily Weather History Graph

Daily Weather History Graph

Search for Another Location

Airport:

Trip Planner

Search our weather history database for the weather conditions in past years. The results will help you decide how hot, cold, wet, or windy it might be!

Date:

Astronomy

Nov. 04, 2012 Rise Set
Actual Time 6:44 AM MST 4:46 PM MST
Civil Twilight 6:13 AM MST 5:17 PM MST
Nautical Twilight 5:39 AM MST 5:51 PM MST
Astronomical Twilight 5:05 AM MST 6:25 PM MST
Moon 9:25 PM MST (11/4) 11:31 AM MST (11/4)
Length of Visible Light 11h 03m
Length of Day
10h 02m
Waning Gibbous, 71% of the Moon is Illuminated
Nov 4
Waning Gibbous
Nov 6
Last Quarter
Nov 13
New
Nov 20
First Quarter
Nov 28
Full

Hourly Weather History & Observations

Time (MST) Temp. Windchill Dew Point Humidity Pressure Visibility Wind Dir Wind Speed Gust Speed Precip Events Conditions
12:53 AM 42.8 °F 38.0 °F 24.8 °F 49% 30.08 in 10.0 mi South 8.1 mph - N/A   Clear
1:53 AM 46.0 °F 41.9 °F 24.1 °F 42% 30.02 in 10.0 mi SSW 8.1 mph - N/A   Clear
1:53 AM 46.9 °F - 23.0 °F 39% 30.03 in 10.0 mi Calm Calm - N/A   Scattered Clouds
2:53 AM 46.9 °F - 24.1 °F 41% 30.02 in 10.0 mi Calm Calm - N/A   Overcast
3:53 AM 46.0 °F 44.8 °F 23.0 °F 40% 30.02 in 10.0 mi West 3.5 mph - N/A   Mostly Cloudy
4:53 AM 44.1 °F 39.5 °F 23.0 °F 43% 30.08 in 10.0 mi West 8.1 mph - N/A   Clear
5:53 AM 46.0 °F 41.4 °F 23.0 °F 40% 30.10 in 10.0 mi West 9.2 mph - N/A   Overcast
6:53 AM 46.9 °F - 23.0 °F 39% 30.11 in 10.0 mi West 10.4 mph - N/A   Overcast
7:53 AM 50.0 °F - 25.0 °F 38% 30.14 in 10.0 mi WNW 15.0 mph - N/A   Overcast
8:53 AM 48.9 °F - 30.9 °F 50% 30.15 in 10.0 mi NW 13.8 mph - N/A   Overcast
9:53 AM 51.1 °F - 33.1 °F 50% 30.17 in 10.0 mi NW 16.1 mph - N/A   Overcast
10:53 AM 51.1 °F - 33.1 °F 50% 30.18 in 10.0 mi NNW 15.0 mph 23.0 mph N/A   Overcast
11:53 AM 51.1 °F - 34.0 °F 52% 30.17 in 10.0 mi NW 16.1 mph - N/A   Overcast
12:53 PM 51.1 °F - 36.0 °F 56% 30.16 in 10.0 mi NNW 25.3 mph 32.2 mph N/A   Overcast
1:53 PM 50.0 °F - 37.9 °F 63% 30.17 in 10.0 mi WNW 21.9 mph 27.6 mph 0.00 in   Mostly Cloudy
2:53 PM 52.0 °F - 35.1 °F 53% 30.16 in 10.0 mi NW 23.0 mph 29.9 mph N/A   Scattered Clouds
3:53 PM 50.0 °F - 35.1 °F 57% 30.20 in 10.0 mi NW 15.0 mph - N/A   Mostly Cloudy
4:53 PM 48.0 °F - 35.1 °F 61% 30.22 in 10.0 mi NW 8.1 mph - N/A   Overcast
5:53 PM 46.9 °F - 36.0 °F 66% 30.24 in 10.0 mi WNW 9.2 mph - N/A   Overcast
6:53 PM 44.1 °F 38.6 °F 35.1 °F 71% 30.26 in 10.0 mi West 10.4 mph - N/A   Overcast
7:53 PM 44.1 °F 38.1 °F 35.1 °F 71% 30.26 in 10.0 mi West 11.5 mph - N/A   Overcast
8:53 PM 44.1 °F 39.0 °F 36.0 °F 73% 30.26 in 10.0 mi West 9.2 mph - N/A   Overcast
9:53 PM 44.1 °F 39.5 °F 35.1 °F 71% 30.25 in 10.0 mi WNW 8.1 mph - N/A   Overcast
10:53 PM 39.9 °F 35.8 °F 34.0 °F 79% 30.26 in 10.0 mi West 5.8 mph - N/A   Mostly Cloudy